Tracking 31027 objects as of 19-Jul-2025
HD Live streaming from Space Station
objects crossing your sky now

LES 9

Track LES 9 now!
LES 9 is classified as:


NORAD ID: 8747
Int'l Code: 1976-023B
Perigee: 35,688.2 km
Apogee: 35,896.2 km
Inclination: 21.7 °
Period: 1,436.0 minutes
Semi major axis: 42163 km
RCS: 3.1777 m2 (large)
Launch date: March 15, 1976
Source: United States (US)
Launch site: AIR FORCE EASTERN TEST RANGE (AFETR)

Original purpose was "Air Force sponsored program in space communications"; nuclear-powered; circuits jam-resistant to operate in hostile environment.
Your satellite tracking list
Your tracking list is empty




NASA's NSSDC Master Catalog

Two Line Element Set (TLE):
1 08747U 76023B   25199.10718015 -.00000104  00000-0  00000-0 0  9999
2 08747  21.7375  41.3061 0024669 170.0421  16.3255  1.00277421126320
Source of the keplerian elements: AFSPC